MAS20 WMKK-LFPG

Flight info

Callsign MAS20
Flight time N/A
Altitude 38000
Route ATIMU2D ATIMU Y506 VPG B579 VPL P628 DUDIK W138 KKJ L333 MEMID/N0498F380 L333 MERUN L750 RANAH B801 NINOP B475 DOLOS/N0487F400 B449 ETRAP B447 KRS B143 TUNEK A909 RODAR M11 ERLEV T923 SUBUT T916 MATAL M11 REBLO UM11 CRM UL746 ODERO DCT OPT DCT IRLOX DCT BUDOP DCT BALUX DCT BEGLA DCT DEXIT DCT INBED DCT BOMBI DCT RUDUS DCT BETEX DCT IDOSA DCT TOLVU/N0488F410 DCT RAPOR DCT VEDUS VEDUS9E
Aircraft A359/H-V/N

Departure

Time 2026-05-04 01:16
Airport Kuala Lumpur International Airport (WMKK)

Arrival

Time N/A
Airport Charles de Gaulle International Airport (LFPG)
Time Latitude Longitude Altitude Speed Heading
2026-05-04 00:58 2.74882 101.71638 79 ft 0 kts 326°
2026-05-04 01:09 2.74868 101.71647 67 ft 3 kts 325°
2026-05-04 01:09 2.74851 101.71657 69 ft 4 kts 355°
2026-05-04 01:09 2.74833 101.71655 67 ft 4 kts 34°
2026-05-04 01:09 2.74813 101.71638 67 ft 4 kts 52°
2026-05-04 01:10 2.74805 101.71627 67 ft 1 kts 56°
2026-05-04 01:12 2.74824 101.71655 70 ft 12 kts 56°
2026-05-04 01:12 2.74875 101.71730 83 ft 13 kts 56°
2026-05-04 01:12 2.74896 101.71802 84 ft 9 kts 106°
2026-05-04 01:12 2.74842 101.71859 88 ft 14 kts 144°
2026-05-04 01:13 2.74758 101.71918 86 ft 15 kts 146°
2026-05-04 01:13 2.74672 101.71975 88 ft 14 kts 147°
2026-05-04 01:13 2.74627 101.72033 89 ft 6 kts 86°
2026-05-04 01:13 2.74653 101.72084 91 ft 10 kts 58°
2026-05-04 01:14 2.74692 101.72147 89 ft 11 kts 57°
2026-05-04 01:14 2.74739 101.72214 89 ft 10 kts 42°
2026-05-04 01:14 2.74792 101.72235 87 ft 5 kts 354°
2026-05-04 01:14 2.74820 101.72218 89 ft 5 kts 327°
2026-05-04 01:15 2.74931 101.72143 88 ft 46 kts 326°
2026-05-04 01:15 2.75373 101.71847 86 ft 105 kts 326°
2026-05-04 01:15 2.76129 101.71341 69 ft 155 kts 326°
2026-05-04 01:15 2.77149 101.70656 173 ft 191 kts 326°
2026-05-04 01:16 2.78265 101.69905 711 ft 196 kts 326°
2026-05-04 01:16 2.79448 101.69110 1163 ft 209 kts 326°
2026-05-04 01:16 2.80702 101.68271 1610 ft 229 kts 326°
2026-05-04 01:16 2.82098 101.67338 1989 ft 250 kts 326°
2026-05-04 01:17 2.83567 101.66355 2712 ft 256 kts 326°
2026-05-04 01:17 2.85051 101.65361 3482 ft 259 kts 326°
2026-05-04 01:17 2.86540 101.64312 4195 ft 263 kts 322°
2026-05-04 01:17 2.87976 101.63160 4927 ft 267 kts 320°
2026-05-04 01:18 2.89418 101.61966 5611 ft 270 kts 320°
2026-05-04 01:18 2.90875 101.60761 6266 ft 274 kts 320°
2026-05-04 01:18 2.92359 101.59540 6856 ft 278 kts 321°
2026-05-04 01:18 2.93866 101.58301 7449 ft 282 kts 321°
2026-05-04 01:19 2.95389 101.57050 8038 ft 285 kts 321°
2026-05-04 01:19 2.96934 101.55782 8618 ft 289 kts 321°
2026-05-04 01:19 2.98495 101.54501 9184 ft 292 kts 321°
2026-05-04 01:19 3.00056 101.53220 9731 ft 295 kts 321°
2026-05-04 01:20 3.01673 101.51894 10210 ft 300 kts 321°
2026-05-04 01:20 3.03325 101.50539 10461 ft 313 kts 321°
2026-05-04 01:20 3.05047 101.49127 10695 ft 326 kts 321°
2026-05-04 01:20 3.06815 101.47676 10934 ft 339 kts 321°
2026-05-04 01:21 3.08668 101.46156 11173 ft 351 kts 321°
2026-05-04 01:21 3.10588 101.44582 11413 ft 362 kts 321°
2026-05-04 01:21 3.12564 101.42960 11633 ft 373 kts 321°
2026-05-04 01:21 3.14598 101.41291 11855 ft 384 kts 321°
2026-05-04 01:22 3.16687 101.39576 12075 ft 393 kts 321°
2026-05-04 01:22 3.18830 101.37818 12343 ft 401 kts 321°
2026-05-04 01:22 3.20996 101.36040 12717 ft 405 kts 321°
2026-05-04 01:22 3.23179 101.34248 13038 ft 407 kts 321°
2026-05-04 01:23 3.25371 101.32449 13301 ft 410 kts 322°
2026-05-04 01:23 3.27593 101.30624 13592 ft 413 kts 322°
2026-05-04 01:23 3.29816 101.28800 13864 ft 415 kts 322°
2026-05-04 01:23 3.32054 101.26962 14123 ft 417 kts 322°
2026-05-04 01:24 3.34313 101.25106 14388 ft 419 kts 322°
2026-05-04 01:24 3.36543 101.23276 14654 ft 421 kts 322°
2026-05-04 01:24 3.38812 101.21413 14908 ft 423 kts 322°
2026-05-04 01:24 3.41088 101.19543 15168 ft 425 kts 321°
2026-05-04 01:25 3.43378 101.17662 15447 ft 427 kts 322°
2026-05-04 01:25 3.45682 101.15771 15701 ft 429 kts 321°
2026-05-04 01:25 3.47992 101.13873 15955 ft 431 kts 321°
2026-05-04 01:25 3.50317 101.11964 16215 ft 433 kts 321°
2026-05-04 01:26 3.52649 101.10049 16469 ft 435 kts 321°
2026-05-04 01:26 3.54986 101.08128 16731 ft 437 kts 321°
2026-05-04 01:26 3.57341 101.06192 16983 ft 438 kts 321°
2026-05-04 01:26 3.59707 101.04248 17220 ft 441 kts 321°
2026-05-04 01:27 3.62082 101.02296 17475 ft 442 kts 321°
2026-05-04 01:27 3.64465 101.00339 17698 ft 444 kts 321°
2026-05-04 01:27 3.66926 100.98465 17903 ft 446 kts 327°
2026-05-04 01:27 3.69630 100.96922 18146 ft 446 kts 334°
2026-05-04 01:28 3.72431 100.95580 18356 ft 447 kts 336°
2026-05-04 01:28 3.75283 100.94323 18551 ft 449 kts 338°
2026-05-04 01:28 3.78159 100.93099 18774 ft 450 kts 338°
2026-05-04 01:28 3.81047 100.91872 18995 ft 451 kts 338°
2026-05-04 01:29 3.83932 100.90632 19204 ft 452 kts 338°
2026-05-04 01:29 3.86776 100.89391 19398 ft 453 kts 337°
2026-05-04 01:29 3.89671 100.88114 19615 ft 454 kts 337°
2026-05-04 01:29 3.92559 100.86831 19828 ft 455 kts 337°
2026-05-04 01:30 3.95454 100.85540 20037 ft 456 kts 337°
2026-05-04 01:30 3.98356 100.84244 20247 ft 457 kts 337°
2026-05-04 01:30 4.01258 100.82949 20441 ft 458 kts 337°
2026-05-04 01:30 4.04178 100.81647 20643 ft 459 kts 337°
2026-05-04 01:31 4.07098 100.80346 20836 ft 460 kts 337°
2026-05-04 01:31 4.10028 100.79040 21029 ft 461 kts 337°
2026-05-04 01:31 4.12965 100.77733 21220 ft 462 kts 337°
2026-05-04 01:31 4.15909 100.76422 21411 ft 463 kts 337°
2026-05-04 01:32 4.18858 100.75111 21608 ft 465 kts 337°
2026-05-04 01:32 4.21812 100.73792 21813 ft 465 kts 337°
2026-05-04 01:32 4.24769 100.72465 22012 ft 467 kts 336°
2026-05-04 01:32 4.27736 100.71129 22187 ft 468 kts 336°
2026-05-04 01:33 4.30705 100.69792 22376 ft 469 kts 336°
2026-05-04 01:33 4.33651 100.68467 22547 ft 470 kts 336°
2026-05-04 01:33 4.36670 100.67110 22736 ft 471 kts 336°
2026-05-04 01:33 4.39630 100.65780 22908 ft 472 kts 336°
2026-05-04 01:34 4.42629 100.64433 23090 ft 473 kts 336°
2026-05-04 01:34 4.45636 100.63084 23257 ft 474 kts 336°
2026-05-04 01:34 4.48649 100.61731 23428 ft 475 kts 336°
2026-05-04 01:34 4.51675 100.60372 23568 ft 476 kts 337°
2026-05-04 01:35 4.54698 100.59015 23709 ft 477 kts 336°
2026-05-04 01:35 4.57735 100.57651 23842 ft 478 kts 337°
2026-05-04 01:35 4.60771 100.56287 23966 ft 480 kts 337°
2026-05-04 01:35 4.63825 100.54915 24105 ft 480 kts 337°
2026-05-04 01:36 4.66877 100.53544 24227 ft 481 kts 337°
2026-05-04 01:36 4.69938 100.52169 24363 ft 482 kts 337°
2026-05-04 01:36 4.73003 100.50792 24480 ft 483 kts 337°
2026-05-04 01:36 4.76075 100.49411 24610 ft 484 kts 337°
2026-05-04 01:37 4.79149 100.48030 24739 ft 485 kts 337°
2026-05-04 01:37 4.82234 100.46643 24873 ft 486 kts 337°
2026-05-04 01:37 4.85325 100.45254 24988 ft 487 kts 337°
2026-05-04 01:37 4.88415 100.43865 25113 ft 488 kts 337°
2026-05-04 01:38 4.91516 100.42471 25233 ft 489 kts 337°
2026-05-04 01:38 4.94624 100.41073 25366 ft 490 kts 337°
2026-05-04 01:38 4.97734 100.39675 25478 ft 491 kts 337°
2026-05-04 01:38 5.00856 100.38270 25607 ft 492 kts 337°
2026-05-04 01:39 5.03979 100.36866 25705 ft 493 kts 337°
2026-05-04 01:39 5.07109 100.35458 25829 ft 493 kts 337°
2026-05-04 01:39 5.10244 100.34048 25950 ft 494 kts 337°
2026-05-04 01:39 5.13386 100.32634 26073 ft 495 kts 337°
2026-05-04 01:40 5.15470 100.31696 26132 ft 496 kts 337°
2026-05-04 01:40 5.19646 100.29817 26316 ft 497 kts 337°
2026-05-04 01:40 5.22846 100.28377 26419 ft 498 kts 337°
2026-05-04 01:40 5.25969 100.26971 26583 ft 499 kts 337°
2026-05-04 01:41 5.29134 100.25547 26691 ft 500 kts 337°
2026-05-04 01:41 5.32297 100.24086 26805 ft 501 kts 336°
2026-05-04 01:41 5.35441 100.22582 26929 ft 502 kts 335°
2026-05-04 01:41 5.38575 100.21058 27036 ft 502 kts 335°
2026-05-04 01:42 5.41737 100.19518 27137 ft 504 kts 335°
2026-05-04 01:42 5.44896 100.17985 27258 ft 504 kts 335°
2026-05-04 01:42 5.46995 100.16971 27341 ft 505 kts 335°
2026-05-04 01:42 5.50160 100.15448 27442 ft 506 kts 335°
2026-05-04 01:43 5.53343 100.13921 27543 ft 506 kts 335°
2026-05-04 01:43 5.56526 100.12397 27641 ft 507 kts 335°
2026-05-04 01:43 5.59715 100.10871 27751 ft 508 kts 335°
2026-05-04 01:43 5.62913 100.09341 27853 ft 509 kts 335°
2026-05-04 01:44 5.66116 100.07807 27957 ft 510 kts 335°
2026-05-04 01:44 5.72525 100.04737 28154 ft 512 kts 335°
2026-05-04 01:44 5.75753 100.03191 28260 ft 512 kts 335°
2026-05-04 01:45 5.78969 100.01650 28374 ft 513 kts 335°
2026-05-04 01:45 5.88615 99.97025 28652 ft 515 kts 335°
2026-05-04 01:46 5.95094 99.93917 28810 ft 516 kts 335°
2026-05-04 01:46 6.01592 99.90800 28965 ft 518 kts 335°
2026-05-04 01:47 6.08097 99.87679 29109 ft 519 kts 335°
2026-05-04 01:47 6.14622 99.84547 29233 ft 520 kts 335°
2026-05-04 01:48 6.17849 99.82998 29351 ft 520 kts 335°
2026-05-04 01:48 6.21156 99.81410 29475 ft 519 kts 335°
2026-05-04 01:48 6.27630 99.78286 29654 ft 520 kts 334°
2026-05-04 01:49 6.33537 99.74119 29854 ft 522 kts 316°
2026-05-04 01:49 6.37783 99.68238 30053 ft 523 kts 296°
2026-05-04 01:50 6.39202 99.64870 30181 ft 522 kts 291°
2026-05-04 01:50 6.40479 99.61465 30319 ft 521 kts 290°
2026-05-04 01:50 6.41711 99.58035 30469 ft 520 kts 290°
2026-05-04 01:50 6.42928 99.54620 30611 ft 519 kts 290°
2026-05-04 01:51 6.44154 99.51205 30765 ft 518 kts 290°
2026-05-04 01:51 6.45388 99.47812 30900 ft 517 kts 290°
2026-05-04 01:51 6.46635 99.44420 31033 ft 517 kts 290°
2026-05-04 01:51 6.47889 99.41032 31174 ft 516 kts 290°
2026-05-04 01:52 6.49143 99.37659 31318 ft 515 kts 290°
2026-05-04 01:52 6.50401 99.34277 31462 ft 515 kts 290°
2026-05-04 01:52 6.51653 99.30913 31589 ft 514 kts 290°
2026-05-04 01:52 6.52905 99.27543 31724 ft 514 kts 290°
2026-05-04 01:53 6.54152 99.24183 31843 ft 514 kts 290°
2026-05-04 01:53 6.55401 99.20816 31977 ft 513 kts 290°
2026-05-04 01:53 6.56645 99.17457 32111 ft 513 kts 290°
2026-05-04 01:53 6.57888 99.14102 32234 ft 512 kts 290°
2026-05-04 01:54 6.59132 99.10745 32357 ft 512 kts 290°
2026-05-04 01:54 6.60375 99.07387 32477 ft 512 kts 290°
2026-05-04 01:54 6.61617 99.04036 32614 ft 511 kts 290°
2026-05-04 01:54 6.62857 99.00686 32748 ft 511 kts 290°
2026-05-04 01:55 6.64098 98.97334 32874 ft 510 kts 290°
2026-05-04 01:55 6.65334 98.93996 33017 ft 510 kts 290°
2026-05-04 01:55 6.66571 98.90652 33143 ft 510 kts 290°
2026-05-04 01:55 6.67807 98.87312 33266 ft 509 kts 290°
2026-05-04 01:56 6.69042 98.83973 33397 ft 509 kts 290°
2026-05-04 01:56 6.70276 98.80635 33542 ft 509 kts 290°
2026-05-04 01:56 6.71492 98.77346 33698 ft 508 kts 290°
2026-05-04 01:56 6.72723 98.74016 33863 ft 507 kts 290°
2026-05-04 01:57 6.73949 98.70698 34010 ft 506 kts 290°
2026-05-04 01:57 6.75175 98.67380 34140 ft 506 kts 290°
2026-05-04 01:57 6.76400 98.64062 34269 ft 505 kts 290°
2026-05-04 01:57 6.77622 98.60753 34397 ft 505 kts 290°
2026-05-04 01:58 6.78846 98.57439 34522 ft 504 kts 290°
2026-05-04 01:58 6.80066 98.54132 34655 ft 504 kts 290°
2026-05-04 01:58 6.81285 98.50828 34778 ft 503 kts 290°
2026-05-04 01:58 6.82502 98.47531 34907 ft 503 kts 290°
2026-05-04 01:59 6.83719 98.44231 35027 ft 502 kts 290°
2026-05-04 01:59 6.84936 98.40932 35152 ft 502 kts 290°
2026-05-04 01:59 6.86149 98.37641 35255 ft 502 kts 290°
2026-05-04 01:59 6.87363 98.34346 35379 ft 502 kts 290°
2026-05-04 02:00 6.88575 98.31057 35494 ft 501 kts 290°
2026-05-04 02:00 6.89787 98.27769 35596 ft 501 kts 290°
2026-05-04 02:00 6.90998 98.24479 35706 ft 501 kts 290°
2026-05-04 02:00 6.92212 98.21183 35806 ft 501 kts 290°
2026-05-04 02:01 6.93423 98.17894 35912 ft 501 kts 290°
2026-05-04 02:01 6.94631 98.14613 36028 ft 501 kts 290°
2026-05-04 02:01 6.95826 98.11363 36137 ft 500 kts 290°
2026-05-04 02:01 6.97032 98.08086 36245 ft 500 kts 290°
2026-05-04 02:02 6.99946 98.01741 36379 ft 501 kts 303°
2026-05-04 02:02 7.04594 97.96561 36547 ft 500 kts 321°
2026-05-04 02:03 7.07342 97.94415 36652 ft 499 kts 323°
2026-05-04 02:03 7.10141 97.92345 36737 ft 499 kts 324°
2026-05-04 02:03 7.15783 97.88265 36923 ft 499 kts 324°
2026-05-04 02:04 7.21400 97.84167 37096 ft 499 kts 324°
2026-05-04 02:04 7.27003 97.80031 37266 ft 499 kts 323°
2026-05-04 02:05 7.32594 97.75886 37421 ft 499 kts 323°
2026-05-04 02:05 7.38189 97.71735 37560 ft 499 kts 323°
2026-05-04 02:06 7.43789 97.67583 37697 ft 499 kts 323°
2026-05-04 02:06 7.49389 97.63430 37821 ft 500 kts 323°
2026-05-04 02:07 7.55015 97.59257 37786 ft 504 kts 323°
2026-05-04 02:07 7.60672 97.55060 37897 ft 505 kts 323°
2026-05-04 02:08 7.66336 97.50858 37940 ft 505 kts 323°
2026-05-04 02:08 7.71963 97.46689 37940 ft 505 kts 323°
2026-05-04 02:09 7.77619 97.42498 37939 ft 504 kts 323°
2026-05-04 02:09 7.83271 97.38308 37943 ft 504 kts 323°
2026-05-04 02:10 7.88920 97.34119 37939 ft 504 kts 323°
2026-05-04 02:10 7.94570 97.29927 37939 ft 504 kts 323°
2026-05-04 02:11 8.00216 97.25737 37937 ft 504 kts 323°
2026-05-04 02:11 8.05574 97.21184 37939 ft 503 kts 312°
2026-05-04 02:12 8.09629 97.15445 37937 ft 503 kts 302°
2026-05-04 02:12 8.13228 97.09445 37938 ft 503 kts 300°
2026-05-04 02:13 8.16829 97.03336 37939 ft 503 kts 300°
2026-05-04 02:13 8.20414 96.97319 37940 ft 504 kts 301°
2026-05-04 02:14 8.24066 96.91235 37939 ft 504 kts 301°
2026-05-04 02:14 8.27681 96.85220 37935 ft 504 kts 301°
2026-05-04 02:15 8.31321 96.79161 37939 ft 505 kts 301°
2026-05-04 02:15 8.34959 96.73098 37938 ft 505 kts 301°
2026-05-04 02:16 8.38604 96.67019 37939 ft 505 kts 301°
2026-05-04 02:16 8.42244 96.60946 37941 ft 505 kts 301°
2026-05-04 02:17 8.45883 96.54873 37937 ft 505 kts 301°
2026-05-04 02:17 8.49517 96.48806 37935 ft 505 kts 301°
2026-05-04 02:18 8.53156 96.42727 37938 ft 505 kts 301°
2026-05-04 02:18 8.56791 96.36653 37940 ft 505 kts 301°
2026-05-04 02:19 8.60426 96.30575 37937 ft 505 kts 301°
2026-05-04 02:19 8.64029 96.24550 37937 ft 504 kts 301°
2026-05-04 02:20 8.67657 96.18478 37933 ft 504 kts 301°
2026-05-04 02:20 8.71280 96.12413 37937 ft 504 kts 301°
2026-05-04 02:21 8.74898 96.06352 37936 ft 504 kts 301°
2026-05-04 02:21 8.78518 96.00289 37935 ft 504 kts 301°
2026-05-04 02:22 8.82135 95.94222 37939 ft 504 kts 301°
2026-05-04 02:22 8.85747 95.88150 37937 ft 504 kts 301°
2026-05-04 02:23 8.89358 95.82080 37934 ft 504 kts 301°
2026-05-04 02:23 8.92974 95.76002 37934 ft 504 kts 301°
2026-05-04 02:24 8.96581 95.69938 37933 ft 505 kts 301°
2026-05-04 02:24 9.00210 95.63832 37934 ft 505 kts 301°
2026-05-04 02:25 9.03830 95.57740 37933 ft 505 kts 300°
2026-05-04 02:25 9.07452 95.51640 37934 ft 506 kts 300°
2026-05-04 02:26 9.11076 95.45533 37932 ft 506 kts 300°
2026-05-04 02:26 9.14698 95.39426 37934 ft 506 kts 301°
2026-05-04 02:27 9.18298 95.33355 37930 ft 506 kts 301°
2026-05-04 02:27 9.21921 95.27243 37932 ft 506 kts 301°
2026-05-04 02:28 9.25543 95.21130 37931 ft 506 kts 301°
2026-05-04 02:28 9.28553 95.16046 37929 ft 506 kts 301°
2026-05-04 02:29 9.32785 95.08896 37929 ft 506 kts 301°
2026-05-04 02:29 9.35789 95.03817 37930 ft 505 kts 301°
2026-05-04 02:30 9.39395 94.97719 37932 ft 504 kts 301°
2026-05-04 02:30 9.42994 94.91630 37931 ft 503 kts 301°
2026-05-04 02:31 9.46584 94.85551 37934 ft 502 kts 300°
2026-05-04 02:31 9.50172 94.79474 37932 ft 502 kts 300°
2026-05-04 02:32 9.53746 94.73418 37929 ft 501 kts 300°
2026-05-04 02:32 9.57319 94.67360 37934 ft 500 kts 300°
2026-05-04 02:33 9.60887 94.61308 37934 ft 500 kts 300°
2026-05-04 02:33 9.64447 94.55265 37932 ft 500 kts 300°
2026-05-04 02:34 9.68008 94.49218 37932 ft 500 kts 300°
2026-05-04 02:34 9.71643 94.43269 37927 ft 500 kts 306°
2026-05-04 02:35 9.76463 94.38151 37932 ft 500 kts 318°
2026-05-04 02:35 9.81714 94.33592 37931 ft 500 kts 320°
2026-05-04 02:36 9.87045 94.29072 37930 ft 499 kts 320°
2026-05-04 02:36 9.92361 94.24532 37933 ft 499 kts 319°
2026-05-04 02:37 9.97664 94.19969 37931 ft 499 kts 319°
2026-05-04 02:37 10.02948 94.15411 37929 ft 499 kts 319°
2026-05-04 02:38 10.08227 94.10856 37931 ft 498 kts 319°
2026-05-04 02:38 10.13514 94.06294 37932 ft 499 kts 319°
2026-05-04 02:39 10.18767 94.01759 37928 ft 499 kts 319°
2026-05-04 02:39 10.24051 93.97196 37928 ft 499 kts 319°
2026-05-04 02:40 10.29342 93.92625 37929 ft 499 kts 319°
2026-05-04 02:40 10.34626 93.88057 37931 ft 499 kts 319°
2026-05-04 02:41 10.39908 93.83489 37928 ft 499 kts 319°
2026-05-04 02:41 10.45189 93.78921 37928 ft 499 kts 319°
2026-05-04 02:42 10.50476 93.74344 37928 ft 498 kts 319°
2026-05-04 02:42 10.55749 93.69777 37929 ft 498 kts 319°
2026-05-04 02:43 10.61011 93.65219 37926 ft 497 kts 319°
2026-05-04 02:43 10.66270 93.60660 37926 ft 496 kts 319°
2026-05-04 02:44 10.71483 93.56140 37928 ft 495 kts 319°
2026-05-04 02:44 10.76723 93.51594 37929 ft 495 kts 319°
2026-05-04 02:45 10.81957 93.47050 37926 ft 494 kts 319°
2026-05-04 02:45 10.87175 93.42519 37926 ft 494 kts 319°
2026-05-04 02:46 10.92414 93.37967 37926 ft 494 kts 319°
2026-05-04 02:46 10.97635 93.33428 37929 ft 494 kts 319°
2026-05-04 02:47 11.02856 93.28888 37925 ft 493 kts 319°
2026-05-04 02:47 11.08073 93.24349 37928 ft 493 kts 319°
2026-05-04 02:48 11.13287 93.19810 37927 ft 493 kts 318°
2026-05-04 02:48 11.18498 93.15271 37926 ft 492 kts 318°
2026-05-04 02:49 11.23696 93.10741 37927 ft 492 kts 318°
2026-05-04 02:49 11.28897 93.06207 37926 ft 491 kts 318°
2026-05-04 02:50 11.34086 93.01681 37928 ft 491 kts 318°
2026-05-04 02:50 11.39267 92.97159 37925 ft 490 kts 318°
2026-05-04 02:51 11.44408 92.92671 37917 ft 489 kts 318°
2026-05-04 02:51 11.49573 92.88159 37915 ft 489 kts 318°
2026-05-04 02:52 11.54744 92.83639 37913 ft 489 kts 318°
2026-05-04 02:52 11.59911 92.79121 37912 ft 489 kts 318°
2026-05-04 02:53 11.65025 92.74532 37911 ft 488 kts 313°
2026-05-04 02:53 11.69738 92.69534 37910 ft 489 kts 311°
2026-05-04 02:54 11.74372 92.64458 37913 ft 489 kts 311°
2026-05-04 02:54 11.79013 92.59356 37914 ft 490 kts 311°
2026-05-04 02:55 11.85966 92.51740 37922 ft 492 kts 311°
2026-05-04 02:56 11.90635 92.46630 37920 ft 492 kts 311°
2026-05-04 02:56 11.95302 92.41521 37922 ft 492 kts 311°
2026-05-04 02:57 11.99973 92.36404 37930 ft 492 kts 311°
2026-05-04 02:57 12.04645 92.31283 37928 ft 492 kts 311°
2026-05-04 02:58 12.09317 92.26157 37929 ft 492 kts 311°
2026-05-04 02:58 12.13988 92.21031 37925 ft 492 kts 311°
2026-05-04 02:59 12.18657 92.15904 37924 ft 492 kts 311°
2026-05-04 02:59 12.23320 92.10781 37928 ft 492 kts 311°
2026-05-04 03:00 12.27985 92.05652 37925 ft 492 kts 311°
2026-05-04 03:00 12.32616 92.00559 37927 ft 492 kts 311°
2026-05-04 03:01 12.37279 91.95428 37929 ft 492 kts 311°
2026-05-04 03:01 12.41938 91.90297 37923 ft 492 kts 311°
2026-05-04 03:02 12.46594 91.85167 37927 ft 492 kts 311°
2026-05-04 03:02 12.51246 91.80040 37925 ft 491 kts 311°
2026-05-04 03:03 12.55893 91.74915 37927 ft 491 kts 311°
2026-05-04 03:03 12.60540 91.69786 37925 ft 490 kts 311°
2026-05-04 03:04 12.65177 91.64664 37923 ft 490 kts 311°
2026-05-04 03:04 12.69782 91.59576 37921 ft 490 kts 311°
2026-05-04 03:05 12.74455 91.54411 37922 ft 491 kts 311°
2026-05-04 03:05 12.79060 91.49317 37924 ft 491 kts 311°
2026-05-04 03:06 12.83699 91.44182 37921 ft 491 kts 311°
2026-05-04 03:06 12.88342 91.39040 37926 ft 491 kts 311°
2026-05-04 03:07 12.92980 91.33901 37925 ft 491 kts 311°
2026-05-04 03:07 12.97620 91.28757 37929 ft 491 kts 311°
2026-05-04 03:08 13.02260 91.23609 37925 ft 491 kts 311°
2026-05-04 03:08 13.06894 91.18465 37925 ft 491 kts 311°
2026-05-04 03:09 13.11498 91.13351 37926 ft 490 kts 311°
2026-05-04 03:09 13.16124 91.08210 37925 ft 490 kts 311°
2026-05-04 03:10 13.20743 91.03073 37929 ft 489 kts 311°
2026-05-04 03:10 13.25361 90.97934 37929 ft 489 kts 311°
2026-05-04 03:11 13.29969 90.92803 37925 ft 489 kts 311°
2026-05-04 03:11 13.34578 90.87669 37927 ft 488 kts 311°
2026-05-04 03:12 13.39183 90.82535 37928 ft 488 kts 310°
2026-05-04 03:12 13.43779 90.77408 37926 ft 488 kts 310°
2026-05-04 03:13 13.48376 90.72277 37928 ft 488 kts 310°
2026-05-04 03:13 13.52969 90.67148 37928 ft 487 kts 310°
2026-05-04 03:14 13.57556 90.62021 37927 ft 487 kts 310°
2026-05-04 03:14 13.62150 90.56885 37924 ft 487 kts 310°
2026-05-04 03:15 13.66707 90.51787 37927 ft 487 kts 310°
2026-05-04 03:15 13.71298 90.46646 37921 ft 488 kts 310°
2026-05-04 03:16 13.75889 90.41504 37928 ft 488 kts 310°
2026-05-04 03:16 13.80475 90.36362 37919 ft 488 kts 310°
2026-05-04 03:17 13.85066 90.31213 37920 ft 488 kts 310°
2026-05-04 03:17 13.88873 90.26941 37922 ft 488 kts 310°
2026-05-04 03:18 13.94235 90.20918 37924 ft 487 kts 310°
2026-05-04 03:18 13.98785 90.15805 37919 ft 487 kts 310°
2026-05-04 03:19 14.02619 90.11495 37916 ft 487 kts 310°
2026-05-04 03:19 14.07938 90.05509 37927 ft 487 kts 310°
2026-05-04 03:20 14.11769 90.01197 37924 ft 487 kts 310°
2026-05-04 03:20 14.16342 89.96045 37917 ft 487 kts 310°
2026-05-04 03:21 14.20907 89.90899 37922 ft 486 kts 310°
2026-05-04 03:21 14.25445 89.85780 37919 ft 486 kts 310°
2026-05-04 03:22 14.30003 89.80636 37920 ft 486 kts 310°
2026-05-04 03:22 14.34564 89.75483 37917 ft 486 kts 310°
2026-05-04 03:23 14.39116 89.70339 37917 ft 486 kts 310°
2026-05-04 03:23 14.43666 89.65194 37914 ft 485 kts 310°
2026-05-04 03:24 14.48220 89.60040 37916 ft 485 kts 310°
2026-05-04 03:24 14.52767 89.54891 37914 ft 485 kts 310°
2026-05-04 03:25 14.57309 89.49744 37914 ft 485 kts 310°
2026-05-04 03:25 14.61857 89.44587 37916 ft 485 kts 310°
2026-05-04 03:26 14.66401 89.39431 37916 ft 485 kts 310°
2026-05-04 03:26 14.70941 89.34277 37914 ft 485 kts 310°
2026-05-04 03:27 14.75469 89.29161 37914 ft 485 kts 311°
2026-05-04 03:27 14.80172 89.24149 37916 ft 486 kts 312°
2026-05-04 03:28 14.84918 89.19174 37913 ft 486 kts 312°
2026-05-04 03:28 14.89643 89.14175 37913 ft 486 kts 312°
2026-05-04 03:29 14.94347 89.09161 37915 ft 486 kts 312°
2026-05-04 03:29 14.99044 89.04142 37915 ft 486 kts 312°
2026-05-04 03:30 15.03741 88.99121 37915 ft 485 kts 312°
2026-05-04 03:30 15.08437 88.94099 37914 ft 485 kts 312°
2026-05-04 03:31 15.13136 88.89072 37915 ft 485 kts 312°
2026-05-04 03:31 15.17827 88.84051 37912 ft 485 kts 312°
2026-05-04 03:32 15.22521 88.79023 37913 ft 485 kts 312°
2026-05-04 03:32 15.27181 88.74027 37913 ft 485 kts 312°
2026-05-04 03:33 15.31868 88.68999 37911 ft 485 kts 312°
2026-05-04 03:33 15.36559 88.63963 37911 ft 485 kts 312°
2026-05-04 03:34 15.41249 88.58925 37912 ft 485 kts 312°
2026-05-04 03:34 15.45935 88.53887 37911 ft 485 kts 312°
2026-05-04 03:35 15.50622 88.48846 37910 ft 485 kts 312°
2026-05-04 03:35 15.55305 88.43805 37907 ft 485 kts 312°
2026-05-04 03:36 15.59986 88.38763 37908 ft 485 kts 312°
2026-05-04 03:36 15.64668 88.33715 37909 ft 485 kts 312°
2026-05-04 03:37 15.69316 88.28701 37907 ft 485 kts 312°
2026-05-04 03:37 15.73992 88.23654 37906 ft 485 kts 312°
2026-05-04 03:38 15.78664 88.18606 37904 ft 485 kts 312°
2026-05-04 03:38 15.83336 88.13555 37909 ft 484 kts 312°
2026-05-04 03:39 15.88004 88.08506 37905 ft 484 kts 311°
2026-05-04 03:39 15.92667 88.03458 37911 ft 484 kts 311°
2026-05-04 03:40 15.97328 87.98408 37908 ft 484 kts 311°
2026-05-04 03:40 16.01990 87.93354 37904 ft 484 kts 311°
2026-05-04 03:41 16.06649 87.88300 37906 ft 484 kts 311°
2026-05-04 03:41 16.11304 87.83246 37905 ft 484 kts 311°
2026-05-04 03:42 16.15958 87.78189 37906 ft 484 kts 311°
2026-05-04 03:42 16.20573 87.73171 37906 ft 483 kts 311°
2026-05-04 03:43 16.25223 87.68111 37903 ft 483 kts 311°
2026-05-04 03:43 16.29869 87.63053 37908 ft 483 kts 311°
2026-05-04 03:44 16.34520 87.57985 37906 ft 483 kts 311°
2026-05-04 03:44 16.39163 87.52922 37899 ft 483 kts 311°
2026-05-04 03:45 16.43806 87.47856 37902 ft 483 kts 311°
2026-05-04 03:45 16.48439 87.42797 37898 ft 483 kts 311°
2026-05-04 03:46 16.53078 87.37726 37895 ft 482 kts 311°
2026-05-04 03:46 16.57676 87.32697 37896 ft 482 kts 311°
2026-05-04 03:47 16.62308 87.27627 37901 ft 482 kts 311°
2026-05-04 03:47 16.66930 87.22565 37897 ft 482 kts 311°
2026-05-04 03:48 16.71548 87.17503 37894 ft 482 kts 311°
2026-05-04 03:48 16.76174 87.12450 37897 ft 481 kts 311°
2026-05-04 03:49 16.80860 87.07450 37889 ft 481 kts 312°
2026-05-04 03:49 16.85551 87.02466 37898 ft 481 kts 312°
2026-05-04 03:50 16.90234 86.97468 37892 ft 481 kts 312°
2026-05-04 03:50 16.94904 86.92467 37893 ft 481 kts 312°
2026-05-04 03:51 16.99566 86.87469 37891 ft 481 kts 312°
2026-05-04 03:51 17.04230 86.82466 37892 ft 480 kts 312°
2026-05-04 03:52 17.08899 86.77455 37892 ft 481 kts 312°
2026-05-04 03:52 17.13556 86.72451 37886 ft 480 kts 312°
2026-05-04 03:53 17.18214 86.67444 37891 ft 480 kts 312°
2026-05-04 03:53 17.22873 86.62432 37891 ft 480 kts 312°
2026-05-04 03:54 17.27496 86.57455 37890 ft 480 kts 312°
2026-05-04 03:54 17.32175 86.52413 37891 ft 480 kts 312°
2026-05-04 03:55 17.36831 86.47392 37889 ft 480 kts 312°
2026-05-04 03:55 17.41449 86.42408 37874 ft 480 kts 312°
2026-05-04 03:56 17.46096 86.37389 37891 ft 480 kts 312°
2026-05-04 03:56 17.50747 86.32362 37877 ft 480 kts 312°
2026-05-04 03:57 17.55399 86.27330 37891 ft 480 kts 312°
2026-05-04 03:57 17.60047 86.22298 37891 ft 480 kts 312°
2026-05-04 03:58 17.67015 86.14748 37879 ft 480 kts 312°
2026-05-04 03:58 17.71668 86.09700 37896 ft 481 kts 312°
2026-05-04 03:59 17.76314 86.04656 37881 ft 481 kts 312°
2026-05-04 03:59 17.80964 85.99604 37879 ft 481 kts 312°
2026-05-04 04:00 17.85614 85.94549 37894 ft 481 kts 312°
2026-05-04 04:00 17.90258 85.89495 37876 ft 481 kts 312°
2026-05-04 04:01 17.94872 85.84470 37879 ft 481 kts 312°
2026-05-04 04:01 17.99515 85.79409 37881 ft 481 kts 312°
2026-05-04 04:02 18.04160 85.74342 37884 ft 481 kts 312°
2026-05-04 04:02 18.08799 85.69278 37877 ft 481 kts 312°
2026-05-04 04:03 18.13444 85.64203 37876 ft 481 kts 312°
2026-05-04 04:03 18.18085 85.59128 37880 ft 481 kts 312°
2026-05-04 04:04 18.22725 85.54050 37878 ft 481 kts 312°
2026-05-04 04:04 18.27365 85.48968 37876 ft 481 kts 312°
2026-05-04 04:05 18.31997 85.43891 37875 ft 481 kts 312°
2026-05-04 04:05 18.36627 85.38811 37881 ft 481 kts 312°
2026-05-04 04:06 18.40470 85.34592 37876 ft 480 kts 312°
2026-05-04 04:06 18.45093 85.29512 37874 ft 480 kts 312°
2026-05-04 04:07 18.50462 85.23608 37877 ft 480 kts 311°
2026-05-04 04:07 18.55087 85.18517 37875 ft 480 kts 311°
2026-05-04 04:08 18.58958 85.14253 37874 ft 480 kts 311°
2026-05-04 04:08 18.63543 85.09199 37870 ft 480 kts 311°
2026-05-04 04:09 18.68165 85.04099 37868 ft 480 kts 311°
2026-05-04 04:09 18.72782 84.99000 37868 ft 480 kts 311°
2026-05-04 04:10 18.77406 84.93905 37869 ft 480 kts 311°
2026-05-04 04:10 18.82040 84.88825 37868 ft 480 kts 311°
2026-05-04 04:11 18.86671 84.83737 37869 ft 481 kts 311°
2026-05-04 04:11 18.91285 84.78619 37870 ft 481 kts 311°
2026-05-04 04:12 18.95896 84.73494 37871 ft 481 kts 311°
2026-05-04 04:12 19.00509 84.68369 37870 ft 481 kts 311°
2026-05-04 04:13 19.05121 84.63245 37872 ft 481 kts 311°
2026-05-04 04:13 19.09735 84.58115 37872 ft 481 kts 311°
2026-05-04 04:14 19.14347 84.52982 37878 ft 481 kts 311°
2026-05-04 04:14 19.18959 84.47846 37883 ft 481 kts 311°
2026-05-04 04:15 19.23538 84.42739 37886 ft 482 kts 311°
2026-05-04 04:15 19.28149 84.37593 37889 ft 482 kts 311°
2026-05-04 04:16 19.32766 84.32437 37895 ft 482 kts 311°
2026-05-04 04:16 19.37377 84.27282 37896 ft 482 kts 311°
2026-05-04 04:17 19.41988 84.22125 37898 ft 482 kts 311°
2026-05-04 04:17 19.46637 84.17008 37895 ft 482 kts 312°
2026-05-04 04:18 19.51358 84.11974 37907 ft 482 kts 312°
2026-05-04 04:18 19.56062 84.06951 37907 ft 482 kts 312°
2026-05-04 04:19 19.60777 84.01885 37910 ft 482 kts 312°
2026-05-04 04:19 19.65481 83.96813 37913 ft 482 kts 312°
2026-05-04 04:20 19.70192 83.91726 37909 ft 482 kts 312°
2026-05-04 04:20 19.74886 83.86654 37909 ft 482 kts 312°
2026-05-04 04:21 19.79588 83.81570 37913 ft 482 kts 312°
2026-05-04 04:21 19.84293 83.76479 37913 ft 482 kts 312°
2026-05-04 04:22 19.88994 83.71387 37905 ft 482 kts 312°
2026-05-04 04:22 19.93690 83.66298 37903 ft 482 kts 312°
2026-05-04 04:23 19.98385 83.61206 37896 ft 482 kts 312°
2026-05-04 04:23 20.03076 83.56110 37895 ft 482 kts 312°
2026-05-04 04:24 20.07755 83.51022 37887 ft 481 kts 312°
2026-05-04 04:24 20.12435 83.45930 37885 ft 481 kts 312°
2026-05-04 04:25 20.17113 83.40836 37879 ft 481 kts 312°
2026-05-04 04:25 20.21750 83.35781 37877 ft 480 kts 312°
2026-05-04 04:26 20.26424 83.30682 37873 ft 480 kts 312°
2026-05-04 04:26 20.31088 83.25590 37866 ft 480 kts 312°
2026-05-04 04:27 20.35756 83.20488 37862 ft 480 kts 312°
2026-05-04 04:27 20.40418 83.15388 37865 ft 480 kts 312°
2026-05-04 04:28 20.45081 83.10282 37865 ft 480 kts 312°
2026-05-04 04:28 20.49737 83.05178 37865 ft 480 kts 312°
2026-05-04 04:29 20.54392 83.00072 37866 ft 480 kts 312°
2026-05-04 04:29 20.59042 82.94966 37869 ft 480 kts 312°
2026-05-04 04:30 20.63690 82.89849 37867 ft 480 kts 312°
2026-05-04 04:30 20.68329 82.84724 37865 ft 480 kts 311°
2026-05-04 04:31 20.72973 82.79593 37862 ft 480 kts 312°
2026-05-04 04:31 20.77609 82.74467 37868 ft 480 kts 311°
2026-05-04 04:32 20.82253 82.69329 37870 ft 480 kts 312°
2026-05-04 04:32 20.86884 82.64201 37864 ft 479 kts 312°
2026-05-04 04:33 20.91487 82.59102 37859 ft 479 kts 312°
2026-05-04 04:33 20.96130 82.53989 37863 ft 479 kts 312°
2026-05-04 04:34 21.00779 82.48875 37865 ft 479 kts 312°
2026-05-04 04:34 21.05453 82.43724 37862 ft 479 kts 312°
2026-05-04 04:35 21.10064 82.38642 37858 ft 480 kts 310°
2026-05-04 04:35 21.14726 82.33491 37866 ft 484 kts 310°
2026-05-04 04:36 21.19418 82.28295 37854 ft 485 kts 310°
2026-05-04 04:36 21.24110 82.23100 37862 ft 484 kts 310°
2026-05-04 04:37 21.33471 82.12722 37859 ft 484 kts 310°
2026-05-04 04:38 21.38145 82.07533 37865 ft 484 kts 310°
2026-05-04 04:38 21.42818 82.02339 37862 ft 483 kts 310°
2026-05-04 04:39 21.47501 81.97161 37857 ft 484 kts 311°
2026-05-04 04:39 21.52271 81.92057 37864 ft 484 kts 311°
2026-05-04 04:40 21.57057 81.86970 37850 ft 484 kts 311°
2026-05-04 04:40 21.61828 81.81868 37869 ft 483 kts 311°
2026-05-04 04:41 21.66582 81.76760 37856 ft 483 kts 311°
2026-05-04 04:41 21.71296 81.71687 37857 ft 483 kts 311°
2026-05-04 04:42 21.76041 81.66576 37855 ft 482 kts 311°
2026-05-04 04:42 21.80777 81.61461 37856 ft 482 kts 310°
2026-05-04 04:43 21.85442 81.56281 37856 ft 481 kts 310°
2026-05-04 04:43 21.90083 81.51083 37857 ft 481 kts 310°
2026-05-04 04:44 21.94733 81.45896 37857 ft 481 kts 310°
2026-05-04 04:44 21.99346 81.40672 37861 ft 481 kts 309°
2026-05-04 04:45 22.03935 81.35435 37865 ft 480 kts 309°
2026-05-04 04:47 22.23678 81.21721 37875 ft 495 kts 331°
2026-05-04 04:47 22.29961 81.18671 37876 ft 495 kts 331°
2026-05-04 04:48 22.36224 81.15587 37876 ft 495 kts 330°
2026-05-04 04:49 22.51848 81.07815 37869 ft 495 kts 330°
2026-05-04 04:49 22.58100 81.04700 37869 ft 495 kts 330°
2026-05-04 04:50 22.64360 81.01580 37864 ft 495 kts 330°
2026-05-04 04:50 22.70615 80.98459 37858 ft 495 kts 330°
2026-05-04 04:51 22.76869 80.95335 37859 ft 495 kts 330°
2026-05-04 04:51 22.83118 80.92211 37859 ft 495 kts 330°
2026-05-04 04:52 22.89370 80.89082 37857 ft 495 kts 330°
2026-05-04 04:52 22.95621 80.85949 37856 ft 495 kts 330°
2026-05-04 04:53 23.00811 80.83346 37845 ft 494 kts 330°
2026-05-04 04:53 23.07052 80.80213 37845 ft 494 kts 330°
2026-05-04 04:54 23.14305 80.76568 37838 ft 493 kts 330°
2026-05-04 04:54 23.19523 80.73940 37836 ft 493 kts 330°
2026-05-04 04:55 23.25732 80.70786 37830 ft 493 kts 329°
2026-05-04 04:55 23.31944 80.67626 37823 ft 492 kts 329°
2026-05-04 04:56 23.38109 80.64490 37815 ft 492 kts 329°
2026-05-04 04:56 23.44307 80.61337 37806 ft 492 kts 329°
2026-05-04 04:57 23.50506 80.58180 37804 ft 491 kts 329°
2026-05-04 04:57 23.56696 80.55025 37805 ft 491 kts 329°
2026-05-04 04:58 23.62886 80.51867 37802 ft 491 kts 329°
2026-05-04 04:58 23.69073 80.48707 37798 ft 491 kts 329°
2026-05-04 04:59 23.75257 80.45545 37805 ft 490 kts 329°
2026-05-04 04:59 23.81427 80.42387 37805 ft 490 kts 329°
2026-05-04 05:00 23.87597 80.39225 37801 ft 489 kts 329°
2026-05-04 05:01 23.96798 80.34504 37807 ft 489 kts 329°
2026-05-04 05:01 24.02951 80.31342 37807 ft 488 kts 329°
2026-05-04 05:02 24.09104 80.28178 37805 ft 488 kts 329°
2026-05-04 05:02 24.15243 80.25017 37804 ft 488 kts 328°
2026-05-04 05:03 24.21381 80.21854 37805 ft 487 kts 328°
2026-05-04 05:04 24.33650 80.15519 37806 ft 487 kts 328°
2026-05-04 05:04 24.39778 80.12350 37807 ft 487 kts 328°
2026-05-04 05:06 24.64279 79.99645 37837 ft 487 kts 328°
2026-05-04 05:07 24.70406 79.96460 37857 ft 487 kts 328°
2026-05-04 05:07 24.76431 79.93099 37860 ft 481 kts 321°
2026-05-04 05:09 24.90949 79.70344 37856 ft 456 kts 293°
2026-05-04 05:09 24.92475 79.67287 37852 ft 456 kts 293°
2026-05-04 05:10 24.95547 79.61181 37855 ft 456 kts 293°
2026-05-04 05:10 24.98627 79.55076 37855 ft 456 kts 293°
2026-05-04 05:11 25.01707 79.48966 37857 ft 456 kts 293°
2026-05-04 05:11 25.04785 79.42847 37862 ft 456 kts 293°
2026-05-04 05:12 25.07853 79.36736 37865 ft 456 kts 293°
2026-05-04 05:12 25.10922 79.30616 37854 ft 456 kts 293°
2026-05-04 05:13 25.13990 79.24490 37859 ft 455 kts 293°
2026-05-04 05:13 25.17029 79.18415 37863 ft 455 kts 293°
2026-05-04 05:14 25.20088 79.12292 37868 ft 456 kts 293°
2026-05-04 05:14 25.23146 79.06162 37866 ft 455 kts 293°
2026-05-04 05:15 25.26203 79.00027 37866 ft 455 kts 293°
2026-05-04 05:15 25.29250 78.93902 37867 ft 455 kts 293°
2026-05-04 05:16 25.32296 78.87773 37864 ft 454 kts 292°
2026-05-04 05:16 25.35333 78.81652 37866 ft 454 kts 292°
2026-05-04 05:17 25.38368 78.75528 37873 ft 454 kts 292°
2026-05-04 05:17 25.41402 78.69396 37867 ft 454 kts 292°
2026-05-04 05:18 25.44434 78.63261 37868 ft 454 kts 292°
2026-05-04 05:18 25.47464 78.57121 37872 ft 454 kts 292°
2026-05-04 05:19 25.50470 78.51024 37870 ft 454 kts 292°
2026-05-04 05:19 25.53490 78.44888 37868 ft 454 kts 292°
2026-05-04 05:20 25.56511 78.38743 37868 ft 454 kts 292°
2026-05-04 05:20 25.59524 78.32606 37876 ft 454 kts 292°
2026-05-04 05:21 25.62546 78.26465 37874 ft 454 kts 292°
2026-05-04 05:21 25.65601 78.20334 37880 ft 454 kts 292°
2026-05-04 05:22 25.68653 78.14210 37879 ft 454 kts 292°
2026-05-04 05:22 25.71698 78.08083 37884 ft 453 kts 292°
2026-05-04 05:23 25.74713 78.01999 37887 ft 453 kts 292°
2026-05-04 05:23 25.77746 77.95869 37885 ft 453 kts 292°
2026-05-04 05:24 25.80776 77.89739 37885 ft 453 kts 292°
2026-05-04 05:24 25.83803 77.83610 37884 ft 453 kts 292°
2026-05-04 05:25 25.86827 77.77475 37881 ft 453 kts 292°
2026-05-04 05:25 25.89845 77.71345 37879 ft 453 kts 292°
2026-05-04 05:26 25.92865 77.65200 37880 ft 453 kts 292°
2026-05-04 05:26 25.95881 77.59057 37875 ft 453 kts 292°
2026-05-04 05:28 26.07928 77.34432 37865 ft 453 kts 292°
2026-05-04 05:29 26.10937 77.28260 37861 ft 453 kts 292°
2026-05-04 05:29 26.13922 77.22131 37862 ft 454 kts 292°
2026-05-04 05:31 26.25895 76.97328 37852 ft 455 kts 292°
2026-05-04 05:32 26.28863 76.91156 37851 ft 455 kts 292°
2026-05-04 05:33 26.33347 76.81816 37855 ft 456 kts 292°
2026-05-04 05:33 26.36338 76.75576 37854 ft 456 kts 292°
2026-05-04 05:34 26.39325 76.69335 37852 ft 457 kts 292°
2026-05-04 05:34 26.42318 76.63075 37853 ft 457 kts 292°
2026-05-04 05:35 26.45310 76.56806 37853 ft 457 kts 292°
2026-05-04 05:35 26.48341 76.50558 37852 ft 459 kts 294°
2026-05-04 05:36 26.51522 76.44431 37856 ft 459 kts 294°
2026-05-04 05:36 26.54743 76.38274 37852 ft 459 kts 294°
2026-05-04 05:37 26.57940 76.32092 37854 ft 459 kts 294°
2026-05-04 05:37 26.61114 76.25907 37844 ft 459 kts 294°
2026-05-04 05:38 26.65870 76.16608 37864 ft 459 kts 294°
2026-05-04 05:38 26.69038 76.10407 37867 ft 459 kts 294°
2026-05-04 05:39 26.73783 76.01105 37873 ft 459 kts 294°
2026-05-04 05:40 26.78521 75.91799 37883 ft 458 kts 294°
2026-05-04 05:40 26.81675 75.85593 37887 ft 458 kts 294°
2026-05-04 05:41 26.84769 75.79355 37885 ft 457 kts 292°
2026-05-04 05:41 26.87661 75.73036 37885 ft 456 kts 292°
2026-05-04 05:42 26.90532 75.66702 37877 ft 456 kts 292°
2026-05-04 05:42 26.92941 75.61449 37870 ft 456 kts 292°
2026-05-04 05:43 26.95851 75.55145 37862 ft 456 kts 292°
2026-05-04 05:45 27.07472 75.29914 37833 ft 455 kts 293°
2026-05-04 05:47 27.19010 75.04676 37819 ft 454 kts 293°
2026-05-04 05:47 27.21883 74.98368 37817 ft 453 kts 293°
2026-05-04 05:48 27.24735 74.92100 37815 ft 453 kts 293°
2026-05-04 05:48 27.27596 74.85802 37807 ft 453 kts 293°
2026-05-04 05:49 27.30457 74.79492 37808 ft 452 kts 294°
2026-05-04 05:49 27.33311 74.73191 37799 ft 452 kts 294°
2026-05-04 05:51 27.44654 74.48049 37782 ft 450 kts 294°
2026-05-04 05:52 27.47476 74.41771 37776 ft 449 kts 294°
2026-05-04 05:52 27.50291 74.35498 37775 ft 448 kts 294°
2026-05-04 05:54 27.61480 74.10471 37743 ft 446 kts 294°
2026-05-04 05:55 27.64261 74.04226 37764 ft 445 kts 294°
2026-05-04 05:55 27.67036 73.97988 37746 ft 445 kts 294°
2026-05-04 05:56 27.69807 73.91749 37742 ft 444 kts 295°
2026-05-04 05:56 27.72570 73.85517 37742 ft 443 kts 295°
2026-05-04 05:57 27.75365 73.79353 37739 ft 444 kts 296°
2026-05-04 05:57 27.78322 73.73240 37730 ft 443 kts 297°
2026-05-04 05:58 27.81289 73.67129 37726 ft 443 kts 297°
2026-05-04 05:58 27.84225 73.61009 37723 ft 443 kts 296°
2026-05-04 05:59 27.87143 73.54882 37720 ft 443 kts 296°
2026-05-04 05:59 27.90055 73.48752 37715 ft 442 kts 297°
2026-05-04 06:00 27.92967 73.42617 37705 ft 442 kts 297°
2026-05-04 06:00 27.95871 73.36491 37706 ft 442 kts 297°
2026-05-04 06:01 27.98771 73.30367 37709 ft 441 kts 297°
2026-05-04 06:03 28.10318 73.05886 37691 ft 441 kts 297°